This is the latest recevied weather packets stored in our database for station/object KF0JJO. If no packets are shown the sender has not sent any weather packets the latest 10 day(s).
| Time | Temp. | Humidity | Pressure | Rain* | Wind** | Luminosity | Snow |
|---|---|---|---|---|---|---|---|
| 1777511440 | 10.56° C | 42% | 1047.8 hPa | 0 mm | - | 4 W/m² | - |
| 1777511137 | 10.56° C | 42% | 1047.5 hPa | 0 mm | - | 6 W/m² | - |
| 1777510832 | 10.56° C | 41% | 1047.6 hPa | 0 mm | - | 9 W/m² | - |
| 1777510530 | 10.56° C | 40% | 1047.6 hPa | 0 mm | - | 11 W/m² | - |
| 1777510226 | 10.56° C | 40% | 1047.5 hPa | 0 mm | - | 14 W/m² | - |
| 1777509922 | 10.56° C | 40% | 1047.3 hPa | 0 mm | - | 17 W/m² | - |
| 1777509618 | 10.56° C | 39% | 1047.4 hPa | 0 mm | - | 19 W/m² | - |
| 1777509315 | 11.11° C | 40% | 1047.5 hPa | 0 mm | - | 21 W/m² | - |
| 1777509012 | 11.11° C | 39% | 1047.3 hPa | 0 mm | - | 24 W/m² | - |
| 1777508709 | 11.11° C | 39% | 1047.4 hPa | 0 mm | - | 36 W/m² | - |
| 1777508406 | 11.67° C | 39% | 1047.6 hPa | 0 mm | - | 32 W/m² | - |
| 1777508103 | 11.67° C | 38% | 1047.3 hPa | 0 mm | - | 33 W/m² | - |
| 1777507800 | 11.67° C | 39% | 1047.5 hPa | 0 mm | - | 33 W/m² | - |
| 1777507496 | 11.67° C | 38% | 1047.5 hPa | 0 mm | - | 33 W/m² | - |
| 1777507193 | 11.67° C | 38% | 1047.4 hPa | 0 mm | - | 32 W/m² | - |
| 1777506892 | 11.67° C | 38% | 1047.7 hPa | 0 mm | - | 35 W/m² | - |
| 1777506588 | 11.67° C | 37% | 1047.6 hPa | 0 mm | - | 50 W/m² | - |
| 1777506284 | 11.67° C | 37% | 1047.5 hPa | 0 mm | - | 97 W/m² | - |
| 1777505980 | 11.67° C | 38% | 1047.6 hPa | 0 mm | - | 72 W/m² | - |
| 1777505676 | 11.67° C | 38% | 1047.4 hPa | 0 mm | - | 123 W/m² | - |
| 1777505374 | 11.67° C | 37% | 1047.5 hPa | 0 mm | - | 100 W/m² | - |
| 1777505070 | 12.22° C | 37% | 1047.5 hPa | 0 mm | - | 78 W/m² | - |
| 1777504767 | 11.67° C | 37% | 1047.7 hPa | 0 mm | - | 88 W/m² | - |
| 1777504464 | 11.67° C | 37% | 1047.6 hPa | 0 mm | - | 68 W/m² | - |
| 1777504160 | 12.22° C | 41% | 1047.5 hPa | 0 mm | - | 66 W/m² | - |
* Rain latest hour (hover to see other rain measurements)
** Current wind speed in m/s (hover to see current wind gust speed)